When you browse on this site, cookies collect data to enhance your experience and personalize the content and advertising you see.
Visit our Privacy Policy to learn more. By continuing to use the site, you agree to this use of cookies and data.
  • In Sweden
  • List of Countries
  • For 7 days
  • Water Temperature
  • Weather Map
  • Weather Widgets
  • user-avatar
    Login

    Hourly Weather Aguilar

    Today, 25 February, Tuesday

    Time Temperature Precipitation Wind Pressure Humidity
    00:00 +9°C° 0 mm 1 mps 708 mmHg 72%
    01:00 +8°C° 0 mm 1 mps 707 mmHg 73%
    02:00 +8°C° 0 mm 1 mps 707 mmHg 74%
    03:00 +8°C° 0 mm 1 mps 706 mmHg 74%
    04:00 +8°C° 0 mm 1 mps 706 mmHg 77%
    05:00 +7°C° 0 mm 2 mps 706 mmHg 81%
    06:00 +6°C° 0 mm 2 mps 707 mmHg 88%
    07:00 +7°C° 0.1 mm 2 mps 707 mmHg 86%
    08:00 +8°C° 0.1 mm 2 mps 706 mmHg 83%
    09:00 +8°C° 0.1 mm 2 mps 706 mmHg 81%
    10:00 +10°C° 0 mm 3 mps 707 mmHg 74%
    11:00 +11°C° 0 mm 4 mps 707 mmHg 67%
    12:00 +13°C° 0 mm 5 mps 707 mmHg 60%
    13:00 +13°C° 0.1 mm 5 mps 706 mmHg 61%
    14:00 +12°C° 0.1 mm 5 mps 706 mmHg 62%
    15:00 +12°C° 0.1 mm 5 mps 705 mmHg 63%
    16:00 +10°C° 0 mm 5 mps 706 mmHg 69%
    17:00 +8°C° 0 mm 4 mps 706 mmHg 76%
    18:00 +7°C° 0 mm 4 mps 706 mmHg 82%
    19:00 +6°C° 0 mm 4 mps 706 mmHg 83%
    20:00 +7°C° 0 mm 3 mps 706 mmHg 83%
    21:00 +5°C° 0 mm 3 mps 707 mmHg 83%
    22:00 +5°C° 0 mm 3 mps 707 mmHg 82%
    23:00 +5°C° 0 mm 3 mps 707 mmHg 81%

    Tomorrow, 26 February, Wednesday

    Time Temperature Precipitation Wind Pressure Humidity
    00:00 +5°C° 0 mm 3 mps 707 mmHg 80%
    01:00 +4°C° 0 mm 3 mps 707 mmHg 80%
    02:00 +4°C° 0 mm 4 mps 707 mmHg 79%
    03:00 +4°C° 0 mm 4 mps 707 mmHg 78%
    04:00 +4°C° 0.1 mm 4 mps 707 mmHg 79%
    05:00 +4°C° 0.1 mm 4 mps 707 mmHg 81%
    06:00 +3°C° 0.1 mm 4 mps 707 mmHg 82%
    07:00 +4°C° 0.1 mm 4 mps 707 mmHg 80%
    08:00 +4°C° 0.1 mm 4 mps 707 mmHg 78%
    09:00 +5°C° 0.1 mm 5 mps 708 mmHg 76%
    10:00 +5°C° 0.2 mm 5 mps 708 mmHg 73%
    11:00 +5°C° 0.2 mm 6 mps 708 mmHg 71%
    12:00 +5°C° 0.2 mm 7 mps 708 mmHg 68%
    13:00 +5°C° 0.1 mm 6 mps 708 mmHg 69%
    14:00 +5°C° 0.1 mm 6 mps 707 mmHg 69%
    15:00 +5°C° 0.1 mm 6 mps 707 mmHg 70%
    16:00 +5°C° 0 mm 5 mps 707 mmHg 73%
    17:00 +5°C° 0 mm 4 mps 707 mmHg 77%
    18:00 +4°C° 0 mm 3 mps 707 mmHg 80%
    19:00 +5°C° 0 mm 2 mps 708 mmHg 82%
    20:00 +5°C° 0 mm 1 mps 708 mmHg 83%
    21:00 +5°C° 0 mm 1 mps 708 mmHg 85%
    22:00 +5°C° 0 mm 1 mps 708 mmHg 86%
    23:00 +5°C° 0 mm 1 mps 707 mmHg 88%

    Day after tomorrow, 27 February, Thursday

    Time Temperature Precipitation Wind Pressure Humidity
    00:00 +4°C° 0 mm 1 mps 707 mmHg 89%
    01:00 +4°C° 0 mm 1 mps 707 mmHg 89%
    02:00 +4°C° 0 mm 1 mps 706 mmHg 88%
    03:00 +3°C° 0 mm 1 mps 706 mmHg 88%
    04:00 +4°C° 0 mm 1 mps 705 mmHg 87%
    05:00 +4°C° 0 mm 1 mps 705 mmHg 86%
    06:00 +3°C° 0 mm 2 mps 705 mmHg 85%
    07:00 +4°C° 0 mm 2 mps 706 mmHg 81%
    08:00 +5°C° 0 mm 2 mps 706 mmHg 76%
    09:00 +7°C° 0 mm 3 mps 706 mmHg 72%
    10:00 +8°C° 0 mm 4 mps 706 mmHg 63%
    11:00 +11°C° 0 mm 4 mps 707 mmHg 55%
    12:00 +13°C° 0 mm 5 mps 707 mmHg 47%
    13:00 +13°C° 0 mm 6 mps 707 mmHg 45%
    14:00 +14°C° 0 mm 7 mps 707 mmHg 44%
    15:00 +15°C° 0 mm 8 mps 706 mmHg 42%
    16:00 +13°C° 0 mm 6 mps 706 mmHg 49%
    17:00 +11°C° 0 mm 4 mps 706 mmHg 55%
    18:00 +10°C° 0 mm 2 mps 706 mmHg 62%
    19:00 +9°C° 0 mm 2 mps 707 mmHg 67%
    20:00 +9°C° 0 mm 1 mps 707 mmHg 72%
    21:00 +8°C° 0 mm 1 mps 708 mmHg 77%
    22:00 +8°C° 0 mm 1 mps 708 mmHg 79%
    23:00 +7°C° 0 mm 1 mps 708 mmHg 82%

    28 February, Friday

    Time Temperature Precipitation Wind Pressure Humidity
    00:00 +7°C° 0 mm 1 mps 708 mmHg 84%
    01:00 +7°C° 0 mm 1 mps 708 mmHg 83%
    02:00 +7°C° 0 mm 1 mps 707 mmHg 83%
    03:00 +6°C° 0 mm 1 mps 707 mmHg 83%
    04:00 +6°C° 0 mm 1 mps 707 mmHg 82%
    05:00 +6°C° 0 mm 1 mps 707 mmHg 82%
    06:00 +6°C° 0 mm 1 mps 707 mmHg 82%
    07:00 +7°C° 0 mm 1 mps 707 mmHg 77%
    08:00 +8°C° 0 mm 1 mps 707 mmHg 72%
    09:00 +10°C° 0 mm 1 mps 708 mmHg 67%
    10:00 +11°C° 0 mm 1 mps 707 mmHg 60%
    11:00 +13°C° 0 mm 1 mps 707 mmHg 53%
    12:00 +15°C° 0 mm 1 mps 707 mmHg 47%
    13:00 +15°C° 0 mm 1 mps 706 mmHg 46%
    14:00 +16°C° 0 mm 2 mps 706 mmHg 46%
    15:00 +16°C° 0 mm 2 mps 705 mmHg 46%
    16:00 +15°C° 0 mm 2 mps 704 mmHg 52%
    17:00 +13°C° 0 mm 2 mps 703 mmHg 57%
    18:00 +12°C° 0 mm 2 mps 703 mmHg 63%
    19:00 +10°C° 0 mm 2 mps 702 mmHg 63%
    20:00 +10°C° 0 mm 2 mps 702 mmHg 63%
    21:00 +9°C° 0 mm 2 mps 702 mmHg 63%
    22:00 +9°C° 0 mm 2 mps 702 mmHg 63%
    23:00 +9°C° 0 mm 2 mps 701 mmHg 64%

    29 February, Saturday

    Time Temperature Precipitation Wind Pressure Humidity
    00:00 +8°C° 0 mm 2 mps 701 mmHg 64%
    01:00 +8°C° 0 mm 2 mps 700 mmHg 66%
    02:00 +7°C° 0 mm 2 mps 700 mmHg 68%
    03:00 +7°C° 0 mm 2 mps 699 mmHg 70%
    04:00 +7°C° 0 mm 2 mps 699 mmHg 73%
    05:00 +6°C° 0 mm 2 mps 699 mmHg 75%
    06:00 +6°C° 0 mm 2 mps 698 mmHg 78%
    07:00 +7°C° 0 mm 3 mps 699 mmHg 74%
    08:00 +8°C° 0 mm 3 mps 699 mmHg 70%
    09:00 +10°C° 0 mm 3 mps 699 mmHg 66%
    10:00 +10°C° 0.4 mm 4 mps 700 mmHg 66%
    11:00 +11°C° 0.4 mm 4 mps 700 mmHg 67%
    12:00 +10°C° 0.4 mm 5 mps 701 mmHg 68%
    13:00 +10°C° 0.1 mm 4 mps 701 mmHg 70%
    14:00 +8°C° 0.1 mm 4 mps 701 mmHg 73%
    15:00 +7°C° 0.1 mm 4 mps 701 mmHg 76%
    16:00 +6°C° 0.1 mm 4 mps 701 mmHg 80%
    17:00 +5°C° 0.1 mm 3 mps 702 mmHg 83%
    18:00 +4°C° 0.1 mm 3 mps 702 mmHg 87%
    19:00 +5°C° 0.1 mm 2 mps 703 mmHg 88%
    20:00 +4°C° 0.1 mm 2 mps 704 mmHg 88%
    21:00 +5°C° 0.1 mm 1 mps 704 mmHg 89%
    22:00 +5°C° 0 mm 1 mps 704 mmHg 90%
    23:00 +5°C° 0 mm 1 mps 704 mmHg 90%

    1 March, Sunday

    Time Temperature Precipitation Wind Pressure Humidity
    00:00 +3°C° 0 mm 0 mps 704 mmHg 91%
    01:00 +3°C° 0 mm 0 mps 704 mmHg 90%
    02:00 +4°C° 0 mm 1 mps 704 mmHg 90%
    03:00 +3°C° 0 mm 1 mps 704 mmHg 89%
    04:00 +3°C° 0 mm 1 mps 704 mmHg 87%
    05:00 +3°C° 0 mm 1 mps 703 mmHg 86%
    06:00 +2°C° 0 mm 1 mps 703 mmHg 85%
    07:00 +3°C° 0 mm 1 mps 703 mmHg 80%
    08:00 +4°C° 0 mm 2 mps 703 mmHg 75%
    09:00 +5°C° 0 mm 2 mps 703 mmHg 71%
    10:00 +6°C° 0 mm 2 mps 703 mmHg 68%
    11:00 +7°C° 0 mm 3 mps 703 mmHg 65%
    12:00 +9°C° 0 mm 3 mps 703 mmHg 62%
    13:00 +10°C° 0 mm 3 mps 703 mmHg 60%
    14:00 +11°C° 0 mm 4 mps 703 mmHg 58%
    15:00 +12°C° 0 mm 4 mps 702 mmHg 57%
    16:00 +11°C° 0 mm 3 mps 702 mmHg 61%
    17:00 +10°C° 0 mm 3 mps 702 mmHg 65%
    18:00 +9°C° 0 mm 2 mps 702 mmHg 70%
    19:00 +8°C° 0 mm 2 mps 702 mmHg 71%
    20:00 +8°C° 0 mm 2 mps 702 mmHg 72%
    21:00 +7°C° 0 mm 2 mps 702 mmHg 73%
    22:00 +7°C° 0 mm 2 mps 701 mmHg 74%
    23:00 +7°C° 0 mm 2 mps 700 mmHg 75%
    Show more